Wind_Speed
4 3 1 3 5 6 6 5 5 4 4 6 5 5 4 2 3 5 4 5 3 3 1 1 4 7 6 6 6 4 4 3 6 5 5 5 5 6 7 7 8 9 7 5 8 14 20 22 23 24 24 25 25 26 28 27 26 25 25 24 23 21 19 18 17 16 15 13 12 10 8 6 6 6 5 3 2 0 2 3 4 4 4 3 2 2
5 3 4 8 8 7 6 5 5 4 4 4 5 4 1 2 4 5 3 5 4 1 2 2 2 7 7 6 5 3 1 4 8 8 7 7 7 6 7 8 8 6 3 3 6 11 17 19 20 22 22 24 26 28 29 28 27 27 26 25 24 23 21 19 17 17 16 14 12 11 9 8 7 6 5 3 2 1 2 3 4 4 4 4 3 2
5 3 8 8 6 3 3 4 6 5 4 3 3 3 0 2 3 5 4 5 5 2 3 4 5 6 8 7 7 3 4 5 7 8 9 9 10 8 9 9 7 7 5 6 6 9 17 19 20 21 22 24 25 28 30 28 28 28 27 27 25 24 23 20 18 17 16 15 13 10 9 9 8 7 6 4 3 4 4 4 5 5 6 6 5 4
2 5 6 3 6 7 3 3 6 5 3 3 3 3 2 3 1 2 5 6 5 3 1 2 4 6 7 6 7 4 2 3 3 6 6 6 9 10 10 9 9 10 9 8 8 9 13 16 19 22 22 22 23 26 29 29 30 30 29 28 27 25 23 21 19 18 17 17 14 11 10 9 8 8 7 5 4 4 4 4 5 6 7 7 6 5
6 7 5 5 5 5 2 2 5 5 1 2 2 4 3 2 3 4 4 5 5 4 4 4 5 6 5 6 6 5 5 2 1 2 4 4 6 5 5 8 10 11 11 11 10 10 11 16 22 22 21 22 23 27 31 32 32 32 30 29 28 26 24 22 21 20 20 18 15 13 12 10 8 9 8 6 4 3 3 3 3 5 6 6 5 6
7 6 4 5 2 3 4 2 3 6 2 4 3 7 7 5 4 2 3 5 5 5 5 4 2 5 5 5 6 4 7 6 4 4 3 5 5 3 6 8 9 9 9 10 10 10 12 16 18 18 19 23 26 30 33 33 32 31 30 29 28 27 25 24 23 23 21 19 17 15 14 13 11 11 10 7 5 4 3 2 2 4 5 4 4 5
4 3 3 4 4 4 3 3 5 6 5 2 4 6 7 6 4 3 2 3 2 3 4 2 3 5 6 5 6 4 7 8 7 7 5 5 5 6 7 8 9 9 10 9 10 10 11 14 15 17 22 27 30 31 32 31 31 31 30 30 29 28 27 25 25 24 21 20 18 17 17 16 14 13 11 8 5 4 3 3 2 3 5 4 3 5
3 2 5 5 6 5 2 3 6 7 8 3 4 6 8 6 5 5 4 3 2 3 4 5 4 2 4 5 5 5 6 9 8 9 9 6 3 5 7 8 9 11 12 12 12 12 13 15 18 21 27 32 32 30 30 32 32 33 31 31 30 29 28 28 27 25 23 21 20 19 19 18 16 13 10 9 7 6 5 3 3 1 4 5 4 5
2 3 3 2 5 2 3 4 7 9 5 5 4 8 6 5 5 5 6 4 1 1 3 6 2 1 5 6 5 5 4 7 8 8 9 9 8 6 6 8 10 12 12 12 14 15 14 18 24 29 33 33 29 28 31 33 34 33 32 32 31 30 29 30 29 27 24 22 21 21 21 21 18 14 11 10 8 7 6 5 4 3 3 4 4 4
2 5 5 4 3 3 6 4 8 9 3 4 6 7 5 6 6 5 5 3 3 3 3 7 1 1 4 6 5 4 3 5 7 7 7 7 10 11 9 8 10 10 11 12 14 14 17 24 30 32 31 27 24 26 29 30 32 32 32 32 32 31 30 31 30 28 26 24 23 23 23 24 22 18 15 13 11 9 8 7 6 6 5 4 4 3
4 3 2 3 3 5 4 2 5 5 3 3 6 6 6 6 5 4 3 4 4 2 6 7 2 2 3 5 4 1 1 3 6 6 7 8 9 10 10 9 8 9 10 12 13 13 17 23 25 24 22 21 21 23 25 28 31 31 32 33 33 33 32 31 31 30 28 26 25 25 25 26 25 21 18 16 14 12 11 10 9 8 7 5 4 3
6 3 2 3 3 4 5 3 1 2 4 5 5 5 3 4 5 4 4 4 4 3 6 4 1 3 2 4 4 4 4 5 5 5 8 9 10 10 9 7 6 7 8 10 11 10 10 13 15 19 20 19 20 23 25 29 32 32 34 34 33 34 34 33 32 31 30 28 27 27 27 28 26 23 21 20 18 15 14 12 11 10 10 8 6 4
5 4 4 5 3 4 5 3 3 5 5 5 4 5 3 3 4 3 4 0 2 5 4 1 1 2 4 6 4 6 7 6 4 4 6 7 9 9 6 6 6 5 5 7 8 8 7 8 12 18 21 22 23 26 29 31 34 35 35 34 35 36 36 35 34 33 32 31 30 29 29 29 28 25 23 22 20 18 15 14 13 13 12 10 8 7
4 6 5 3 3 1 5 4 2 1 1 4 4 4 3 2 3 2 3 1 3 5 2 2 1 1 3 3 3 5 6 7 5 5 6 6 8 8 5 6 6 5 4 4 5 6 7 8 11 15 19 23 26 29 30 32 35 36 35 35 36 37 38 37 36 35 34 33 32 30 31 31 30 27 25 23 21 19 17 15 15 14 13 11 9 8
1 5 4 3 2 1 2 5 5 5 3 3 5 5 4 4 4 3 3 3 3 3 1 2 1 2 2 1 2 4 6 6 5 5 5 4 7 7 7 10 10 8 6 4 4 4 4 7 11 13 15 19 21 24 27 31 33 35 36 36 37 38 39 40 39 37 36 35 33 31 32 33 31 29 27 25 23 20 18 17 16 15 14 11 9 8
2 5 7 4 2 1 1 3 5 6 2 2 3 5 2 4 5 2 3 5 3 1 1 2 2 3 2 2 3 3 5 5 4 4 3 5 7 7 10 12 10 9 7 5 4 3 2 4 9 10 12 14 15 18 23 26 29 33 35 37 40 40 41 42 40 38 37 35 34 34 34 34 32 30 29 27 25 23 20 19 18 16 14 12 10 10
1 5 6 5 2 0 1 2 4 3 3 1 2 3 4 4 7 4 1 1 4 2 3 2 1 3 2 0 1 4 4 5 6 7 6 7 8 10 10 9 9 9 8 7 6 3 2 1 6 9 10 11 12 14 19 21 23 25 27 28 30 31 33 36 37 38 37 35 34 35 36 35 34 32 31 29 27 25 23 21 20 17 15 14 12 11
2 4 6 2 1 2 2 2 2 2 4 5 3 5 3 3 4 4 2 3 5 1 4 3 2 2 0 2 3 4 4 6 7 7 7 7 8 9 8 7 8 8 8 9 9 7 6 4 2 8 12 13 12 13 14 16 18 19 19 20 21 22 25 30 35 38 37 36 37 38 38 37 36 34 32 30 28 26 24 23 23 20 18 16 14 12
2 2 7 3 2 5 5 3 2 5 4 4 4 3 3 3 1 1 2 1 1 2 3 4 2 2 3 4 2 1 1 4 7 6 6 7 7 7 6 7 8 8 8 9 9 9 7 8 8 2 7 12 13 13 14 16 17 17 17 20 21 23 25 27 31 34 34 35 36 37 38 39 38 36 34 31 30 28 26 25 25 23 20 18 15 14
1 1 5 4 2 4 5 3 2 4 4 3 3 3 2 3 4 1 2 3 3 2 2 3 3 2 4 5 4 6 5 3 4 5 6 6 6 5 5 6 7 7 8 7 8 8 8 11 15 12 3 4 7 10 13 16 18 20 20 22 22 22 24 25 26 29 33 35 35 36 38 38 38 37 35 33 32 30 28 27 26 24 22 20 18 15
2 1 4 5 4 2 1 1 4 4 1 2 3 2 1 1 2 1 1 2 4 3 3 1 2 4 5 3 5 6 6 5 3 3 5 6 6 6 5 6 6 6 7 7 7 7 7 11 18 19 15 8 3 1 6 10 15 19 22 23 23 23 25 27 29 31 33 36 37 39 40 39 38 38 36 35 34 32 30 28 28 26 24 22 20 17
1 2 3 3 4 1 4 5 3 5 4 4 3 3 3 2 2 2 1 2 2 3 4 4 3 6 5 3 5 6 5 5 3 2 4 5 5 6 5 5 5 5 6 6 6 6 7 10 16 21 23 21 18 14 8 2 6 11 16 19 21 23 26 28 32 35 34 34 37 40 41 40 39 39 37 36 35 33 31 30 29 27 26 24 22 20
1 3 2 3 4 4 7 4 1 2 3 4 2 2 4 3 4 5 3 3 0 0 2 4 2 6 5 3 4 5 5 4 3 2 3 4 4 4 5 5 4 4 4 4 5 5 7 10 15 18 21 22 22 22 20 16 10 6 8 13 17 21 26 29 32 34 33 34 38 41 39 36 36 37 38 37 36 35 33 31 30 29 27 26 24 22
1 3 2 3 4 5 6 3 2 2 4 4 1 2 3 2 3 4 4 3 2 2 2 2 2 6 5 3 2 3 2 2 1 2 1 2 4 4 4 5 5 4 4 5 5 5 8 12 15 16 17 18 19 20 21 21 21 17 11 8 12 19 24 26 27 29 30 34 38 36 30 28 30 33 36 37 37 37 34 32 32 30 28 26 25 23
2 1 2 2 4 6 6 5 5 5 3 2 2 2 2 3 5 3 2 3 2 4 5 3 5 6 4 3 4 5 4 3 3 2 2 2 3 4 4 5 5 6 6 6 6 6 8 10 11 13 15 17 18 19 20 22 23 23 21 17 12 12 18 22 23 25 27 31 35 33 30 31 33 33 35 37 37 37 36 34 33 30 28 27 25 24
1 2 2 2 2 4 3 3 3 2 1 1 2 3 1 4 5 3 2 4 2 4 4 5 4 5 5 5 5 5 4 3 3 2 3 3 1 3 4 4 5 5 6 7 7 6 6 7 8 11 15 16 17 19 20 21 22 23 24 24 23 18 12 14 19 22 25 29 33 35 38 39 37 37 38 38 36 35 35 35 32 30 28 27 25 25
3 0 2 6 6 6 6 6 5 2 1 1 2 2 2 2 4 4 5 3 4 3 3 5 4 2 5 7 6 5 3 1 2 2 1 1 1 2 2 3 4 4 5 5 5 5 5 6 7 9 13 15 16 18 18 19 20 21 22 24 26 25 21 14 12 18 23 28 32 34 37 38 37 38 39 39 38 36 35 34 32 30 28 26 26 26
5 2 2 5 5 6 7 7 4 1 3 5 5 5 6 3 3 5 4 4 4 4 4 7 6 4 6 8 7 5 4 4 4 3 3 3 3 2 1 2 3 4 4 4 4 4 5 5 5 8 11 14 17 19 20 20 21 21 21 23 25 26 26 21 13 13 19 25 30 32 33 34 35 37 38 39 39 36 35 35 32 30 28 26 26 26
5 2 3 3 4 6 5 6 4 1 4 4 5 7 8 6 6 7 8 6 7 6 8 6 8 7 7 7 7 7 6 5 5 4 4 4 3 2 2 2 2 4 5 5 5 5 6 6 6 8 11 14 17 19 21 22 24 25 25 25 26 26 26 25 18 12 15 21 27 30 31 31 32 33 34 36 37 37 37 36 33 31 29 28 27 25
3 2 3 3 4 6 5 6 4 4 4 4 5 8 7 7 9 9 7 6 7 8 8 5 8 9 7 7 8 7 5 5 4 4 3 2 2 1 1 1 2 4 4 5 5 5 5 5 5 7 10 12 14 16 18 20 22 25 27 28 28 28 27 26 23 16 13 18 24 28 29 30 30 31 34 36 37 38 37 36 33 31 30 29 27 24
1 3 2 2 3 6 5 5 3 4 4 5 7 6 4 4 6 6 4 4 5 7 8 5 6 8 7 6 6 3 2 2 2 4 4 3 2 3 3 3 3 4 4 5 5 5 5 5 6 7 9 11 12 14 15 17 19 22 24 27 28 29 28 27 25 20 14 16 21 24 26 28 30 32 35 37 39 39 39 38 35 33 31 30 27 24
0 2 1 2 3 5 3 4 6 3 3 7 8 5 5 5 5 5 4 5 6 6 6 4 4 7 6 5 4 2 1 2 4 5 4 3 4 5 5 4 3 4 5 5 5 5 5 5 5 7 9 12 13 14 15 16 18 21 23 25 27 28 28 28 27 23 18 15 17 21 24 27 30 32 35 38 40 38 35 36 36 34 32 30 27 24
2 2 1 2 3 5 3 5 5 3 5 8 7 7 10 9 7 6 4 4 6 6 5 5 6 6 5 6 6 4 2 2 4 5 3 3 4 4 5 5 4 5 5 5 5 6 6 6 8 10 12 13 14 14 15 15 17 21 23 24 26 27 28 29 28 26 23 18 16 19 23 26 29 32 34 35 34 28 25 28 30 30 28 26 24 23
1 2 2 3 2 4 3 1 1 2 6 8 5 5 8 9 10 10 7 6 6 4 3 3 4 2 4 6 7 6 4 3 3 4 3 3 3 5 5 5 5 5 5 5 5 5 6 8 11 13 14 14 14 14 14 15 18 21 23 24 26 26 27 28 28 27 26 22 17 17 21 26 29 30 30 29 26 23 24 28 29 28 26 24 23 22
2 2 2 1 2 3 1 3 0 6 7 5 3 3 3 3 6 9 6 2 1 1 2 4 2 1 2 1 3 3 3 4 4 6 6 4 5 6 5 5 5 5 5 6 5 6 8 11 13 15 16 17 16 15 16 19 21 23 24 25 25 26 26 27 27 28 27 24 20 18 20 24 27 26 26 26 24 23 27 31 30 29 27 25 23 22
3 3 2 1 1 1 1 3 4 6 5 5 5 5 3 3 2 2 2 4 4 0 2 3 1 2 2 2 2 1 2 4 5 6 7 5 5 6 6 6 6 5 6 6 7 8 12 14 16 18 19 19 18 18 20 23 25 26 27 27 26 27 26 26 26 27 26 25 22 19 20 23 25 26 25 26 27 28 32 33 30 28 28 28 25 22
5 3 2 1 1 2 2 3 3 4 6 6 5 4 2 1 1 2 3 2 5 2 4 5 2 2 3 4 3 3 2 4 5 6 6 5 4 6 7 7 7 7 8 10 12 14 17 19 20 20 20 19 18 20 23 26 27 28 29 29 28 29 28 26 25 25 25 25 23 21 21 22 24 26 26 27 28 30 34 35 32 31 31 29 25 22
3 3 3 2 1 1 1 3 3 3 4 4 4 4 3 4 5 3 2 1 4 2 2 4 2 3 4 4 3 1 2 3 3 5 7 6 5 5 6 9 11 11 13 14 16 17 19 20 20 20 19 18 18 21 24 26 27 28 28 28 28 29 29 27 26 26 26 25 24 22 21 21 24 26 28 29 30 31 33 34 34 33 30 27 25 23
4 2 3 3 1 1 2 2 2 3 4 5 5 7 6 3 4 2 2 1 2 3 1 1 3 4 5 4 2 3 3 1 3 6 6 6 6 5 5 8 11 15 17 18 18 19 19 20 20 19 17 18 20 23 24 26 28 27 26 27 27 27 27 27 28 27 26 25 24 21 20 21 24 27 29 30 33 35 35 35 35 32 27 25 24 21
4 4 3 2 2 1 2 2 3 3 3 3 3 7 8 3 3 4 2 4 4 5 2 2 4 6 5 4 3 4 3 4 5 5 6 5 5 5 7 9 11 14 17 18 19 19 19 19 19 19 18 20 22 23 24 27 28 26 26 26 25 25 27 29 29 27 25 24 22 19 19 21 25 29 30 33 37 39 38 36 34 29 25 24 22 20
3 2 2 0 1 2 2 2 3 3 3 2 4 6 6 3 3 3 4 4 4 5 4 3 4 6 5 4 3 4 5 6 5 5 7 6 6 7 10 13 15 15 17 19 19 19 19 19 20 20 21 23 23 24 25 27 26 27 27 25 24 28 30 29 27 25 23 21 19 18 19 22 27 30 32 36 39 39 35 31 28 25 24 23 21 19
1 2 2 1 1 1 2 2 3 4 3 2 3 5 4 3 1 3 4 3 4 5 4 3 5 5 4 5 4 5 6 7 6 6 7 7 8 8 10 13 14 14 16 18 18 18 19 20 20 21 23 24 24 24 25 25 26 27 26 25 27 31 31 28 25 23 21 19 18 18 19 24 28 30 33 36 37 35 31 27 25 23 23 22 20 17
1 1 2 2 2 0 1 1 2 3 3 1 1 3 4 2 3 5 4 4 4 4 4 4 4 4 4 4 5 6 6 7 7 7 7 8 8 8 10 11 13 15 17 17 18 19 18 19 21 23 24 25 24 25 25 24 26 26 25 27 31 32 30 27 24 22 20 19 19 18 20 25 25 25 29 33 33 30 28 27 26 24 22 22 21 18
2 2 2 2 1 0 1 3 3 4 3 1 1 1 1 3 4 5 5 5 4 4 3 3 4 4 4 4 6 7 6 7 8 8 8 8 8 8 9 11 13 16 18 19 21 21 19 19 21 23 25 25 25 25 25 24 25 26 26 29 32 30 28 27 24 22 21 20 19 19 22 25 24 25 26 28 29 28 27 27 28 25 23 21 19 15
3 3 2 3 2 2 4 5 5 4 3 1 1 1 4 7 7 5 5 5 4 3 2 2 4 6 5 5 6 6 6 7 9 9 9 9 9 9 11 13 15 18 20 21 23 23 21 21 23 23 25 26 25 25 26 25 26 26 28 29 30 28 27 26 24 22 22 21 20 20 21 23 27 29 26 25 28 28 27 27 26 23 21 18 16 14
3 1 2 2 2 3 4 5 5 5 5 4 3 3 5 6 6 5 4 5 5 5 4 3 5 6 6 7 7 7 8 9 10 10 10 10 10 10 11 14 17 19 20 21 23 23 22 23 23 23 24 27 27 25 25 26 26 28 30 30 28 26 26 24 22 22 22 19 18 19 22 24 27 27 25 25 29 28 26 25 22 20 18 16 13 12
3 1 1 2 3 4 4 4 3 4 6 6 6 6 7 6 5 4 4 5 5 5 5 5 6 6 7 7 7 8 10 10 9 10 10 9 10 10 10 12 16 19 21 22 24 25 23 21 21 22 24 26 27 25 25 26 26 27 29 28 26 26 25 22 20 21 19 17 20 26 29 30 29 26 23 24 25 25 23 20 17 15 15 14 12 11
2 0 0 3 4 3 5 6 7 8 9 8 6 5 6 6 6 7 6 5 5 6 7 7 7 6 6 7 8 9 10 10 9 10 9 8 9 10 9 11 16 20 22 24 25 25 22 21 22 23 24 25 27 26 26 26 26 26 27 26 26 26 23 20 20 18 17 24 30 32 33 33 30 27 24 22 20 20 19 17 15 14 13 12 13 13
1 1 2 3 4 5 6 7 7 7 8 8 7 6 5 5 7 8 8 7 7 8 9 9 8 7 7 8 9 9 10 10 9 10 10 10 10 10 11 14 18 20 21 23 24 24 23 24 25 25 24 26 27 26 26 26 26 25 25 26 28 26 23 22 20 18 25 33 35 34 32 30 29 29 27 23 20 18 16 16 16 16 14 13 13 12
1 3 4 2 4 5 5 6 6 6 6 8 9 9 6 5 6 7 8 9 9 9 9 9 10 10 9 10 10 8 9 11 11 11 11 10 10 12 15 17 18 19 21 23 24 24 25 26 26 25 25 26 26 25 26 24 21 20 21 23 24 24 23 21 19 25 33 36 36 34 32 29 29 29 26 23 21 19 17 16 16 15 15 15 13 10
3 5 4 3 4 6 6 8 8 6 6 8 9 9 7 5 6 9 10 10 10 9 8 7 9 10 10 11 12 10 10 11 12 12 11 10 13 17 18 18 18 18 21 23 23 24 25 25 25 24 24 24 25 24 21 15 11 12 16 17 18 20 22 24 26 29 32 33 34 34 33 33 31 27 24 23 22 21 20 19 17 15 15 13 11 8
Wind_Direction
66 60 321 211 222 239 228 195 177 179 145 129 117 118 149 168 274 275 260 285 283 117 51 225 235 274 278 265 255 278 328 247 222 196 174 185 191 201 207 211 213 215 222 209 197 195 192 194 191 188 186 183 181 179 179 182 184 184 183 180 176 173 173 172 169 166 162 160 159 160 169 170 149 144 149 153 166 337 31 55 61 64 61 64 44 12
52 48 254 221 218 226 210 182 149 124 96 103 127 122 135 191 247 267 244 297 318 133 268 328 346 289 273 275 259 202 180 228 221 210 201 198 196 201 208 213 213 216 232 192 192 193 194 198 195 191 188 185 181 179 181 185 185 185 185 184 180 175 176 177 176 174 172 175 173 171 173 167 152 152 158 158 135 47 57 76 63 51 47 46 39 34
21 293 258 238 201 145 116 137 126 111 96 88 125 126 310 253 272 292 295 320 350 66 284 352 15 296 281 288 280 237 189 219 229 214 204 195 192 198 205 208 208 208 208 198 194 193 198 201 198 195 193 189 185 181 183 186 186 186 185 185 183 178 177 178 181 180 175 178 180 175 169 160 153 154 154 141 102 71 73 72 51 39 27 16 18 42
329 262 245 208 146 129 89 97 113 111 99 91 117 135 249 273 334 297 303 326 354 41 344 27 13 301 302 320 301 289 243 224 247 238 229 205 198 202 199 195 197 204 205 200 199 196 197 201 202 201 197 190 186 184 184 186 188 188 186 185 184 181 179 179 180 178 175 178 181 176 166 160 153 149 150 141 109 82 78 64 40 22 11 13 30 50
255 244 178 121 133 152 138 90 119 140 254 300 168 162 196 234 202 219 283 329 350 10 33 51 4 313 327 342 305 304 335 339 0 289 275 255 238 215 187 191 198 203 203 201 201 194 189 200 204 202 196 190 189 189 188 189 190 189 187 186 186 183 180 181 179 175 177 179 179 174 168 167 159 154 162 167 156 133 103 68 34 10 8 26 50 54
261 258 155 123 105 116 137 196 182 159 190 308 244 199 183 177 194 225 349 23 30 348 348 36 349 294 321 326 283 309 347 328 337 348 261 230 244 223 199 205 206 206 207 206 204 197 197 202 201 197 195 193 195 195 192 192 192 189 188 187 186 185 182 182 180 178 182 184 182 180 177 177 171 171 179 181 169 149 129 106 56 17 22 38 41 37
259 306 68 108 111 92 107 246 236 160 130 299 247 197 159 134 132 121 88 74 77 269 301 49 163 260 319 318 284 324 343 313 315 319 281 229 209 210 220 218 205 205 208 210 209 203 203 199 192 195 199 200 201 199 194 193 192 190 190 188 187 186 183 185 185 184 188 190 193 195 192 188 185 186 187 180 167 157 149 137 122 44 47 62 48 43
226 315 23 66 93 91 99 257 234 152 122 235 227 147 129 129 148 152 134 131 193 241 317 16 112 196 301 280 284 344 347 320 317 307 297 291 243 219 231 230 217 211 206 203 203 200 200 196 193 197 202 204 205 200 195 194 192 191 190 188 187 185 183 186 189 191 194 195 200 205 205 202 200 199 190 177 172 171 174 165 160 131 73 84 80 65
221 262 298 76 77 84 206 216 195 154 141 242 186 127 132 137 141 134 116 112 3 343 312 325 39 143 277 275 311 358 346 308 304 295 297 312 317 298 259 235 227 225 218 210 205 200 196 194 197 201 204 205 203 199 197 194 192 192 191 189 188 184 182 187 191 195 198 200 205 211 213 211 210 210 198 183 181 182 187 190 187 184 139 112 99 82
243 236 227 137 101 232 229 208 176 162 183 221 133 99 79 75 77 86 101 106 45 48 254 272 275 155 272 284 310 350 5 301 293 295 297 310 317 307 287 256 232 228 224 218 213 204 197 197 200 202 203 202 200 199 198 195 193 194 192 190 189 185 183 188 193 198 201 203 209 216 218 216 213 213 204 192 191 193 196 202 203 197 175 148 126 108
281 276 195 148 185 201 180 151 172 158 125 118 98 68 54 43 38 51 62 86 69 356 257 252 215 143 270 282 275 270 0 294 287 306 311 314 316 303 293 281 251 233 223 216 215 210 202 200 200 200 200 198 197 197 196 196 196 195 194 193 191 188 187 191 195 200 204 206 211 218 222 218 215 213 207 199 197 198 201 205 207 203 191 174 158 145
329 323 225 256 233 157 109 75 57 59 76 92 74 67 61 355 10 27 356 50 87 270 261 259 161 120 226 265 279 276 285 287 268 284 305 313 314 302 296 303 282 248 226 212 211 210 197 190 190 193 197 194 192 193 194 196 196 197 198 196 194 193 192 194 198 202 206 210 213 220 223 220 216 214 209 204 202 201 200 202 204 203 196 186 176 170
326 255 265 308 287 147 111 68 357 8 44 80 77 78 87 337 14 12 310 1 178 246 257 279 127 152 229 240 282 304 306 307 282 264 283 295 304 306 317 338 329 287 242 216 208 197 176 180 189 191 190 188 191 194 194 195 197 198 200 199 198 198 196 197 201 204 208 212 215 219 222 220 218 216 213 210 208 206 204 201 202 203 198 193 189 182
323 302 318 323 285 157 124 142 222 287 65 129 141 122 122 108 61 313 270 251 261 260 273 299 250 262 274 260 301 316 306 304 315 301 280 278 289 306 357 27 17 358 309 259 231 194 177 190 199 196 193 192 195 196 193 195 197 199 201 201 201 201 200 200 204 207 210 214 216 218 220 220 219 219 217 216 216 213 210 207 204 205 203 200 198 188
288 305 289 193 246 331 168 188 174 152 147 173 160 132 139 155 155 225 223 187 245 257 286 311 262 191 203 286 297 291 288 301 335 314 288 296 293 307 20 38 31 18 356 320 279 240 208 193 194 200 201 201 201 198 194 196 197 199 202 203 204 204 203 203 206 208 212 215 216 217 219 219 221 222 221 221 222 219 216 214 211 211 209 207 207 196
177 257 260 260 264 165 194 200 136 115 126 223 137 112 151 183 155 169 188 167 176 183 227 268 237 214 221 305 313 296 293 313 353 340 354 12 345 360 30 30 28 22 11 4 339 296 270 190 185 191 196 201 204 202 201 201 200 201 204 206 207 206 205 205 207 209 213 216 217 216 217 219 222 225 224 223 224 223 221 219 217 217 214 211 209 200
185 263 281 312 309 251 243 190 134 131 182 182 118 156 205 174 123 114 196 53 74 123 244 262 251 296 313 135 347 343 335 352 7 5 18 18 14 29 29 15 19 21 18 19 14 1 0 168 177 178 184 195 202 203 207 208 207 208 211 213 214 212 210 207 207 210 213 216 219 218 217 218 222 225 226 225 226 224 223 223 222 221 218 213 211 204
163 267 291 317 185 304 329 123 69 54 127 128 176 204 185 127 93 99 137 17 46 162 268 297 206 258 268 195 292 340 11 12 355 352 8 13 26 37 21 5 11 10 16 25 23 21 19 27 144 176 185 196 207 213 214 213 215 219 221 224 226 224 219 213 211 212 213 216 220 220 219 220 223 226 227 228 229 227 224 225 224 223 221 216 213 209
140 262 293 297 222 300 347 61 349 350 59 124 185 182 115 135 206 65 121 130 107 225 285 314 275 230 205 220 243 204 83 356 340 344 9 11 19 28 13 7 11 10 17 24 23 19 18 22 25 50 190 193 199 210 217 219 224 229 229 229 230 228 225 221 218 215 216 219 222 223 223 224 224 226 228 229 229 229 227 228 226 224 223 220 216 213
90 180 283 298 282 301 357 34 260 296 356 25 38 24 44 136 168 153 128 156 168 200 256 306 320 277 233 223 169 169 207 267 324 346 357 349 352 2 3 7 15 20 19 19 19 15 17 25 28 30 36 201 200 207 213 217 223 227 229 230 232 230 228 228 227 222 220 222 225 227 227 227 226 226 228 228 228 229 229 230 229 226 225 222 219 217
33 111 248 292 325 325 339 288 206 186 167 41 33 358 358 70 140 160 90 119 136 151 181 218 295 270 252 223 172 179 209 218 226 325 333 327 334 342 354 6 10 18 18 15 15 13 20 29 34 40 47 54 64 190 216 219 222 223 225 228 231 231 229 229 230 228 223 221 225 229 229 228 228 227 228 228 228 229 230 232 231 228 226 223 220 218
27 146 196 289 332 282 240 248 192 167 169 154 160 191 171 144 134 133 302 315 81 137 169 164 230 262 253 201 196 201 206 215 216 263 309 313 325 337 353 3 4 12 13 8 11 13 20 33 40 43 47 52 52 46 39 358 252 236 231 232 232 231 231 232 231 230 225 220 224 231 231 228 228 228 227 227 227 227 229 231 231 230 227 223 219 216
135 116 138 271 268 240 253 260 158 174 169 136 138 158 148 141 124 133 207 253 1 100 153 131 198 264 262 219 215 220 208 213 230 244 279 307 325 340 353 357 2 17 11 6 21 24 23 35 45 46 44 44 45 44 42 37 22 337 273 255 245 237 235 236 234 231 227 222 224 230 232 229 228 227 226 226 226 226 226 229 230 230 228 224 218 214
71 83 50 301 296 300 301 325 33 47 98 100 33 65 118 136 133 148 172 170 178 203 142 113 267 267 272 273 277 285 264 177 170 214 225 352 346 345 354 355 359 9 13 21 31 37 37 37 39 41 38 33 34 36 36 35 32 26 9 322 276 257 249 244 239 233 229 225 226 230 233 233 231 229 226 226 226 225 225 227 228 228 227 222 217 212
309 77 68 18 335 328 333 349 348 345 44 99 320 345 77 96 98 110 100 102 188 218 170 180 248 252 268 332 353 329 337 66 103 153 144 90 354 340 349 350 348 352 4 17 19 27 43 43 37 36 33 26 23 23 23 24 24 23 22 16 353 301 270 259 252 243 233 225 224 227 233 237 235 231 227 226 224 223 223 225 226 224 222 219 215 210
206 173 122 135 229 247 253 278 274 283 340 0 314 320 33 103 113 135 108 107 210 238 176 179 227 257 281 312 326 329 356 62 87 92 118 124 354 323 337 345 345 351 357 3 5 14 33 39 39 37 33 26 22 19 18 17 15 14 14 15 15 6 331 284 263 253 241 229 225 227 231 234 231 227 226 224 222 222 221 223 223 219 216 215 211 205
122 135 191 170 195 209 207 233 231 168 185 258 231 255 259 132 117 113 105 142 195 193 196 208 198 227 267 267 282 308 320 177 150 111 119 164 263 289 319 334 335 342 341 336 338 349 14 27 34 34 30 25 20 17 15 13 10 10 9 8 10 12 7 346 290 260 246 235 232 231 230 229 226 224 223 221 220 219 219 220 218 213 211 210 207 202
90 341 260 176 213 226 213 240 262 124 227 218 181 208 239 227 122 123 165 204 166 144 253 243 192 195 247 244 246 261 254 241 250 260 261 267 271 278 323 329 324 326 322 318 320 338 9 20 20 21 20 17 14 11 10 8 6 5 4 3 3 5 7 4 338 281 253 240 235 233 231 230 227 223 221 219 217 215 215 216 213 208 206 203 200 200
111 268 244 176 249 256 235 248 251 216 252 236 183 200 221 208 177 183 207 199 154 179 242 229 185 208 239 234 230 226 212 220 241 244 257 286 304 340 5 337 331 324 320 331 337 342 358 2 359 2 4 6 6 5 3 2 0 360 358 356 356 357 359 0 354 317 267 246 237 236 235 233 228 222 218 215 213 211 212 211 206 202 200 197 196 198
134 252 226 184 276 288 269 258 229 202 254 276 242 226 218 206 201 205 219 203 179 214 242 205 190 222 233 217 219 215 200 210 239 262 275 297 310 318 305 282 308 311 307 318 322 322 332 334 333 341 347 352 356 357 355 354 354 353 352 350 350 350 350 351 352 341 294 259 247 243 237 231 226 220 214 212 211 211 209 205 200 196 193 192 193 194
139 254 232 159 293 288 283 292 267 196 208 249 260 258 246 232 224 224 241 217 195 239 254 217 212 245 248 222 217 215 175 186 236 265 261 240 231 220 206 222 264 294 302 308 310 310 311 311 314 322 328 336 341 344 345 345 345 344 344 345 345 344 343 342 343 341 319 281 262 250 237 229 223 217 213 212 212 210 206 201 197 193 189 190 190 190
117 237 312 57 286 268 247 261 273 283 266 252 252 249 232 227 222 215 217 196 186 217 242 230 239 255 246 213 205 220 100 172 230 251 254 254 233 198 192 213 250 284 297 302 307 310 307 304 307 309 313 322 330 334 336 337 336 336 336 337 338 337 337 335 334 332 325 304 277 255 239 228 220 215 213 212 211 209 204 197 191 186 184 185 184 184
165 208 245 146 243 271 238 227 251 317 308 267 241 213 212 217 225 232 239 221 202 188 194 220 241 241 208 168 173 193 201 225 246 244 232 248 251 221 213 226 247 264 273 280 288 293 293 292 293 296 302 310 316 322 326 327 326 327 328 329 331 332 331 329 327 324 320 312 291 264 246 234 223 216 212 209 208 207 198 188 183 178 178 179 179 179
172 219 234 175 209 267 266 274 326 278 261 256 239 211 216 223 225 223 225 228 219 190 165 224 251 217 164 158 169 185 202 229 253 254 236 217 226 242 245 241 245 258 267 271 272 272 275 280 288 294 298 302 307 312 316 318 318 319 322 323 324 325 325 324 322 319 315 311 299 274 254 240 229 219 212 207 205 200 192 186 179 174 176 178 176 176
219 219 229 186 198 238 279 53 28 244 248 261 288 278 258 243 213 213 231 297 344 17 42 37 28 87 118 161 188 186 219 266 298 296 277 236 206 222 245 252 251 256 269 277 275 275 281 285 291 297 301 304 308 311 312 315 316 316 316 318 318 318 318 318 316 314 311 308 300 282 260 245 232 221 213 206 200 193 186 181 173 171 176 179 176 177
190 186 187 180 206 220 132 135 195 243 280 316 333 344 357 11 53 154 255 349 9 334 126 88 49 327 336 298 276 293 299 310 323 297 268 244 212 210 225 244 252 250 257 268 274 280 288 292 293 296 300 304 308 311 313 316 317 315 314 314 314 313 312 311 309 308 307 304 297 284 266 249 233 222 213 203 196 189 179 172 169 173 177 175 173 175
170 153 161 227 226 170 183 220 241 298 312 318 340 357 353 309 341 154 184 314 329 288 148 123 130 278 282 274 286 320 351 8 352 308 278 262 230 215 222 239 253 258 261 269 278 284 290 293 293 293 296 299 302 308 313 315 315 313 311 310 310 309 307 305 302 302 302 299 293 284 269 251 233 221 210 199 191 183 174 170 172 175 173 169 168 172
145 153 164 191 242 104 127 288 309 314 283 269 276 294 275 235 248 238 144 53 331 309 150 137 173 239 251 273 295 343 59 44 344 291 289 289 264 239 241 254 262 267 268 273 280 284 287 290 291 292 293 291 294 303 309 312 312 308 305 304 304 302 300 298 296 296 297 295 292 285 269 248 230 217 207 195 185 176 172 171 172 172 170 167 167 170
41 39 115 130 283 42 123 233 237 214 237 242 252 283 296 263 225 211 112 135 284 301 257 186 275 269 252 250 209 129 104 40 264 260 268 270 264 250 245 259 267 269 270 274 276 278 282 287 289 287 282 279 287 300 309 309 306 301 296 296 296 293 290 288 288 290 291 293 295 288 268 243 223 211 201 188 179 174 171 170 169 168 168 166 165 170
16 11 43 59 268 229 153 211 238 226 233 246 261 281 292 289 139 136 201 241 265 289 271 202 265 277 253 225 176 142 169 230 249 262 261 252 259 256 244 249 258 262 267 273 276 278 281 283 280 274 271 274 285 297 305 305 301 295 290 289 289 283 279 279 282 284 287 291 294 285 261 234 213 202 192 180 173 170 168 166 164 162 164 166 170 176
4 358 2 41 213 213 190 220 270 268 249 260 280 286 302 346 98 155 221 236 254 274 258 205 244 266 240 200 182 184 219 236 245 274 285 288 289 274 258 259 262 264 269 274 279 283 282 278 273 269 269 277 286 294 299 299 294 288 286 285 282 276 275 277 280 281 285 289 288 275 251 222 202 193 185 174 167 162 160 159 159 161 167 173 176 175
7 347 340 41 153 221 185 192 284 289 255 225 269 306 358 48 158 225 239 248 257 268 262 226 237 251 231 214 219 230 251 263 267 275 280 279 277 275 275 277 277 276 278 280 282 284 280 276 273 269 270 278 285 290 294 292 284 279 280 278 274 275 278 280 279 278 281 283 277 263 236 209 196 189 180 169 160 155 155 156 160 164 171 174 171 169
183 274 298 249 213 261 135 172 254 260 238 196 330 345 27 69 230 256 283 284 261 255 257 245 239 242 234 242 259 263 268 278 278 269 258 257 262 269 274 278 281 284 286 285 284 283 279 275 272 271 273 279 283 285 287 282 273 271 271 270 272 277 280 279 276 275 274 272 266 250 221 203 193 182 170 162 155 153 155 159 165 168 170 170 168 168
203 189 251 249 218 124 177 204 214 210 210 186 98 146 247 267 263 271 286 285 267 250 247 250 257 256 248 257 275 277 273 275 277 279 280 280 281 281 280 281 283 286 288 288 288 289 285 275 271 272 276 279 280 281 279 271 264 262 263 267 274 279 278 275 273 269 264 261 255 236 213 198 183 171 168 166 159 153 155 165 173 172 166 164 165 163
214 177 208 237 232 208 208 229 254 255 251 265 135 202 275 289 288 275 261 260 261 250 235 266 292 292 291 290 288 286 282 281 285 291 294 292 290 287 287 286 283 283 286 288 289 291 287 278 274 274 276 278 279 277 274 267 258 255 259 267 273 275 273 271 268 261 256 254 243 220 200 183 171 170 175 172 161 156 162 170 172 166 160 160 159 159
251 206 172 206 258 284 261 253 269 278 273 269 260 264 278 281 283 280 258 244 253 263 262 271 284 290 298 300 296 291 287 287 291 293 290 290 290 285 282 284 285 286 286 286 286 287 285 281 277 274 276 280 281 278 274 268 258 253 259 268 272 271 271 269 264 258 251 241 219 189 170 161 163 169 171 164 160 160 163 163 160 156 158 160 158 157
280 233 152 218 276 299 290 277 280 279 281 289 295 295 292 282 274 276 257 239 254 274 274 269 273 280 288 290 286 284 284 284 286 287 286 286 286 284 282 282 284 285 284 282 284 286 283 279 276 275 277 281 283 282 277 270 263 259 263 268 269 269 269 266 259 255 240 204 173 162 157 156 162 167 163 156 156 155 152 151 152 154 157 155 150 148
262 20 342 247 248 251 265 281 291 289 290 296 293 285 288 293 297 301 293 281 288 294 284 278 283 288 290 289 285 284 285 283 278 277 280 282 280 280 279 275 276 279 280 279 281 282 278 273 272 272 274 277 281 283 278 272 267 264 263 264 264 263 262 258 252 239 200 164 154 153 154 155 159 160 151 143 144 146 147 148 147 143 144 141 138 137
216 293 279 258 267 276 277 284 295 301 302 298 286 267 254 264 284 296 298 300 305 302 293 290 290 286 282 285 287 286 284 281 276 274 278 280 279 277 275 274 275 275 276 277 279 277 272 269 268 269 270 274 278 278 275 271 270 269 266 264 260 255 251 246 234 197 162 150 146 145 148 151 152 150 144 143 149 153 153 149 143 135 131 130 133 136
135 269 264 265 281 276 269 278 291 299 293 286 287 288 277 267 278 287 290 292 290 286 284 287 289 287 278 271 269 271 274 274 274 275 276 275 275 275 276 277 276 274 275 277 278 274 270 267 266 267 269 271 273 273 271 271 273 272 267 261 255 246 236 222 192 161 149 145 142 142 146 146 144 144 146 151 155 152 145 140 139 136 133 132 138 143
194 233 235 240 260 259 262 274 281 284 277 275 281 287 285 281 280 280 282 285 284 282 281 280 284 289 288 276 263 255 257 267 273 275 276 274 275 276 275 274 274 275 279 279 276 273 271 268 266 266 265 266 269 269 268 269 273 272 266 257 244 228 206 180 156 144 141 141 141 144 144 142 145 154 157 154 151 148 142 137 135 137 137 135 136 137
Height
768 772 777 779 777 775 775 778 780 782 781 781 784 784 785 784 779 775 771 772 775 770 770 777 774 769 766 761 761 766 766 765 766 768 771 772 774 776 777 777 776 775 774 774 776 776 778 779 781 783 784 786 788 789 791 792 794 795 797 798 799 800 802 804 805 807 809 810 811 812 813 813 814 815 816 817 818 818 819 820 821 821 822 822 822 822
771 775 777 774 773 774 778 784 784 785 784 782 782 781 783 785 778 772 771 774 774 768 769 775 770 766 764 759 762 768 766 762 762 765 768 770 772 775 776 776 776 775 776 776 776 777 778 779 780 782 783 784 786 787 789 791 793 795 796 797 798 799 801 803 805 807 809 810 811 812 813 814 815 816 816 817 818 818 819 819 820 821 821 822 822 822
776 776 773 772 777 781 783 786 783 782 783 781 782 780 780 785 781 774 771 774 774 767 767 772 768 763 762 761 761 764 763 762 763 763 764 766 768 772 774 775 776 775 775 776 776 777 777 778 780 781 782 783 785 787 788 790 792 794 795 796 798 798 800 803 805 808 809 810 812 812 813 814 815 816 817 817 818 818 818 819 819 820 820 821 821 822
780 775 773 775 778 779 779 783 781 779 781 781 781 779 780 785 784 777 773 773 775 774 772 771 770 764 762 762 758 760 764 764 767 766 764 766 766 766 769 771 774 774 774 774 774 775 776 778 779 779 781 783 785 787 788 790 791 792 794 795 797 799 800 803 805 808 809 810 812 813 814 814 815 816 817 817 818 818 818 818 819 819 819 819 820 821
775 771 774 776 775 774 774 778 778 777 779 782 780 777 778 779 779 779 778 775 775 779 778 773 772 768 766 766 759 760 765 761 766 767 763 766 766 767 769 768 770 770 771 772 772 773 775 775 776 777 779 781 783 785 786 788 789 791 792 794 796 798 800 803 805 808 809 810 812 813 814 815 815 816 817 817 817 818 818 819 819 819 819 819 820 821
770 769 773 773 773 774 774 775 776 776 779 781 777 773 773 773 775 779 780 778 777 781 783 782 782 778 772 768 761 763 764 757 761 762 759 763 765 767 769 767 767 768 768 770 770 770 771 772 774 777 779 780 781 782 784 786 788 791 792 793 796 798 800 803 806 808 809 810 811 812 813 814 815 816 816 817 817 818 818 819 819 819 819 819 820 820
769 769 771 771 772 774 775 776 776 777 781 782 775 771 775 775 776 778 777 779 783 786 789 789 788 786 778 767 761 767 767 759 758 757 755 761 764 764 765 765 765 766 766 767 768 769 770 772 774 776 777 777 778 780 783 786 789 791 791 793 795 797 800 803 805 807 809 810 811 812 813 813 814 815 816 817 817 818 819 819 820 820 820 820 820 821
769 766 768 770 771 774 775 773 774 776 778 778 774 772 775 774 774 778 777 779 786 788 788 789 787 790 787 771 768 774 770 762 759 755 752 755 760 763 763 763 764 762 761 762 763 764 766 768 770 771 772 773 775 778 782 785 787 789 790 792 794 796 799 802 804 807 808 809 811 812 813 814 814 815 816 817 817 818 819 820 820 821 821 821 821 821
770 764 762 765 768 772 770 766 770 773 771 771 774 776 775 774 775 778 780 784 792 790 787 788 788 793 792 775 771 776 770 764 761 756 755 755 759 762 761 761 761 758 757 757 757 759 761 764 765 766 767 770 774 778 781 783 786 788 790 792 793 795 798 800 803 805 807 809 810 811 813 814 814 815 817 817 818 818 819 820 821 821 822 822 822 822
769 766 763 764 766 765 761 764 770 768 767 770 776 778 777 781 784 784 785 785 791 795 789 787 788 793 793 775 768 773 770 769 766 761 763 764 764 762 759 758 756 755 755 753 753 754 755 758 759 761 766 771 775 778 780 784 786 788 789 791 793 794 796 799 801 804 806 808 809 810 811 812 814 815 816 817 818 818 819 820 821 822 823 823 823 823
767 766 766 763 760 759 758 768 774 768 770 774 772 772 774 781 785 788 791 787 793 800 790 787 791 794 793 779 770 775 776 777 775 770 769 767 767 765 760 757 754 752 751 749 750 751 753 756 759 764 768 771 774 777 781 784 785 787 789 790 792 793 795 797 800 802 804 806 807 809 810 811 813 814 815 816 817 818 819 819 820 822 823 823 824 824
768 765 764 758 755 758 758 765 773 771 772 773 769 770 776 784 787 789 793 792 799 803 791 793 800 797 793 783 778 781 782 782 780 775 772 769 768 766 760 756 753 750 748 746 747 749 754 758 761 764 767 770 773 776 779 781 784 786 787 789 791 792 794 795 798 800 802 804 806 807 808 810 811 813 814 815 815 816 817 818 820 821 822 823 824 824
765 761 764 759 754 756 756 763 771 771 771 771 772 776 784 794 798 797 799 801 803 800 796 801 802 795 790 784 783 785 781 780 779 776 774 772 769 766 759 754 751 749 748 747 746 749 754 758 759 760 763 767 770 772 775 778 781 784 785 787 789 790 792 794 796 798 800 802 803 805 807 808 810 811 812 813 813 814 816 817 819 820 821 822 823 824
766 762 763 759 755 754 755 761 768 770 772 772 772 778 787 800 808 807 810 814 808 798 799 805 801 793 789 784 784 784 782 780 777 775 774 772 770 765 757 752 750 750 749 749 748 749 751 754 756 759 761 763 765 768 772 776 778 781 783 785 787 788 790 792 793 795 797 799 801 803 805 807 809 810 811 811 812 813 814 816 817 819 820 821 822 823
778 773 762 758 759 757 755 756 759 761 767 772 773 776 782 789 795 799 801 802 800 797 801 805 798 789 786 784 782 781 781 780 776 776 775 771 770 764 753 750 750 751 752 752 752 751 752 753 755 759 761 763 765 768 772 774 776 779 780 782 784 785 787 789 791 793 795 797 799 801 803 805 807 808 809 810 811 812 813 814 816 817 819 820 821 822
786 777 762 759 760 757 755 756 757 757 765 778 779 775 779 777 778 794 803 799 798 799 799 799 793 788 787 782 780 781 781 779 776 776 774 771 769 763 756 754 753 754 754 754 754 754 755 755 756 758 761 764 767 770 773 774 776 777 778 779 780 782 783 785 788 791 793 796 798 800 801 803 805 806 808 809 810 811 812 813 814 816 817 819 820 821
783 774 762 760 760 756 756 756 757 757 763 778 779 772 777 775 772 789 807 810 807 800 798 799 790 787 791 784 778 781 780 776 775 774 773 773 769 766 765 763 760 757 756 755 756 756 757 757 758 759 761 764 767 770 772 775 777 778 779 781 782 783 784 786 788 790 792 795 798 799 800 802 803 804 806 807 808 809 811 812 813 815 816 817 819 820
780 774 764 762 759 756 759 757 756 758 761 770 772 768 773 777 775 782 794 805 810 804 800 801 792 787 791 786 779 781 778 775 777 776 775 775 772 771 772 770 767 764 760 758 757 757 757 758 758 759 761 763 766 770 773 775 778 779 781 783 785 786 787 788 789 790 792 794 795 796 798 800 801 802 804 805 807 808 810 811 812 814 815 816 818 819
781 776 767 766 765 759 758 758 760 761 761 763 764 764 771 777 778 783 790 797 806 807 803 802 801 795 788 781 777 780 781 779 780 780 777 776 776 776 777 774 771 769 765 763 761 761 761 759 760 761 762 763 766 769 772 775 778 780 782 783 784 786 788 789 789 790 792 794 795 795 797 798 799 800 802 803 805 807 808 809 810 812 814 815 817 817
778 779 772 768 768 765 760 761 765 765 763 763 763 767 773 776 778 783 789 792 798 806 807 803 800 792 784 782 780 779 782 781 780 780 778 778 779 779 779 778 775 773 771 769 768 767 765 763 762 762 764 765 767 769 772 774 776 778 780 782 783 785 786 788 789 790 791 794 796 796 796 797 798 799 800 801 803 805 806 807 809 810 812 814 815 816
778 781 778 768 766 769 766 766 768 766 766 767 767 771 774 779 785 784 788 793 792 798 807 806 799 789 783 787 784 778 779 781 780 780 780 781 781 780 781 781 779 778 776 775 774 773 770 768 767 766 766 767 769 770 772 774 775 776 778 779 780 781 783 784 786 787 788 790 792 793 792 793 795 797 798 799 801 803 804 806 807 808 810 812 813 815
778 781 780 771 768 768 767 769 771 769 770 768 766 769 771 774 782 784 790 798 794 793 801 802 798 789 781 783 782 778 777 780 782 783 782 782 783 783 784 784 783 782 780 779 777 775 774 772 771 770 770 770 770 772 773 774 775 777 777 778 778 778 779 780 781 782 783 786 789 789 789 790 792 794 796 797 798 800 802 804 805 807 808 809 811 813
779 781 780 774 771 771 770 775 778 776 774 771 770 773 774 771 773 778 786 792 793 796 800 800 796 787 779 781 782 778 778 781 785 785 783 784 785 785 786 786 786 784 783 781 778 776 777 775 774 774 773 774 774 774 774 775 776 776 777 777 778 777 777 777 778 779 781 783 785 786 787 788 790 791 793 794 796 798 799 801 803 805 806 808 809 811
780 782 782 777 774 772 769 773 778 777 774 772 774 779 778 774 772 774 780 783 786 791 795 798 799 788 778 782 785 783 783 784 787 788 786 785 785 786 787 786 786 785 783 782 779 778 777 775 775 775 775 776 776 776 776 776 776 777 776 777 777 776 776 776 777 777 778 781 782 784 786 789 790 791 792 792 793 795 797 799 800 802 804 806 807 809
780 783 786 785 784 779 774 774 774 773 773 774 777 781 781 779 779 780 783 785 785 787 788 790 792 786 778 781 783 785 786 785 788 790 787 786 786 786 787 787 787 786 784 782 781 779 778 777 777 776 776 777 776 775 775 775 776 776 776 776 776 775 774 774 775 775 776 777 779 780 783 784 785 788 789 789 790 793 795 797 798 800 802 804 806 808
783 785 785 786 791 792 787 781 778 777 778 781 781 780 779 781 781 779 784 789 788 793 793 786 783 782 782 782 781 782 786 784 786 789 789 789 789 788 789 790 790 788 786 784 783 781 779 779 778 777 777 778 777 777 776 776 776 776 776 776 775 774 772 771 772 773 773 775 775 775 776 776 777 780 783 785 787 790 793 795 796 799 801 803 805 806
786 788 784 783 786 788 784 779 782 785 783 781 781 779 779 782 781 780 786 789 787 792 795 786 782 782 781 780 779 781 785 784 784 786 788 789 790 790 791 791 791 791 790 788 786 784 782 780 779 778 778 778 779 778 778 778 778 777 777 776 774 773 771 769 769 770 771 772 772 772 772 772 773 775 778 780 782 786 790 793 794 796 799 801 803 805
786 787 787 787 784 784 783 780 784 789 783 779 780 779 779 781 782 781 783 784 784 788 789 784 782 782 779 776 777 780 784 785 785 786 788 789 790 792 792 792 792 791 790 790 788 785 783 780 779 778 777 777 778 777 778 778 778 777 777 776 774 772 771 769 768 768 768 769 769 770 770 770 771 773 775 778 780 782 786 789 791 794 797 799 802 804
788 787 790 793 786 784 787 787 789 790 784 781 781 778 777 780 782 780 778 780 782 780 779 779 779 778 776 775 776 780 783 784 786 788 790 791 791 792 792 791 790 790 788 787 786 784 782 780 779 778 777 778 777 777 777 776 775 775 774 774 773 772 771 770 768 767 767 767 767 767 768 769 771 773 775 777 778 780 782 784 787 790 794 797 799 802
789 786 790 793 788 784 785 786 790 790 785 782 780 778 778 781 783 781 778 779 781 776 775 781 783 780 777 775 775 781 786 787 788 791 791 791 790 791 791 789 788 788 787 786 785 784 783 781 781 780 779 779 779 778 778 776 775 774 773 772 772 771 771 770 769 768 767 766 766 765 766 767 768 771 774 775 776 777 779 781 784 787 790 794 797 799
789 789 791 790 788 786 781 780 785 788 788 785 780 780 784 785 786 788 786 783 783 779 777 784 789 785 781 780 780 784 789 788 788 788 788 789 791 791 790 788 787 787 786 785 784 784 783 782 782 781 781 780 779 779 778 777 776 775 773 772 772 771 770 769 769 768 767 766 765 765 766 766 766 768 770 772 773 774 775 777 780 783 787 792 794 797
789 793 792 789 790 788 782 778 779 781 785 785 782 784 785 782 780 780 780 780 777 773 773 781 785 778 777 782 784 786 787 786 785 785 785 787 791 790 787 786 785 785 784 784 784 783 783 782 781 781 780 779 779 778 777 777 775 775 774 773 772 771 770 768 768 767 766 766 766 765 765 765 765 766 767 769 771 772 773 775 777 779 784 789 792 795
790 790 789 790 793 790 783 779 778 780 784 781 777 777 775 773 774 773 773 775 773 769 770 773 772 769 775 783 783 783 784 783 782 783 783 786 789 789 787 785 784 785 784 784 784 783 782 782 781 780 779 778 778 777 777 776 775 774 773 772 771 770 768 767 766 765 765 765 765 765 765 765 765 765 766 768 770 772 775 779 780 781 786 790 792 795
795 792 792 792 791 790 787 786 787 791 788 777 775 777 771 767 769 768 766 768 770 773 775 774 773 777 784 783 778 778 781 781 782 784 785 787 788 787 786 785 784 784 784 784 784 783 782 781 780 779 778 777 777 776 776 775 774 773 772 771 769 768 767 766 765 764 763 762 763 764 764 764 764 765 766 768 770 772 775 778 780 782 786 790 792 795
797 797 798 796 794 795 795 794 797 796 785 774 777 784 780 772 770 769 767 771 778 782 781 780 782 786 787 783 779 780 782 783 786 785 784 786 787 786 785 783 782 782 782 782 782 782 781 780 778 777 776 775 775 774 774 773 772 770 769 769 768 766 765 764 763 762 761 760 760 761 762 762 763 764 765 767 768 770 773 775 778 781 784 788 791 794
796 798 800 798 797 799 798 796 797 792 779 771 775 781 781 777 775 773 771 778 788 788 782 782 786 787 787 785 784 786 788 789 788 784 782 783 784 784 783 781 780 780 780 780 780 780 779 778 777 776 774 773 773 772 771 770 769 768 766 765 765 764 763 762 760 759 759 758 758 758 759 760 761 761 763 764 765 768 770 772 776 780 783 786 789 792
795 795 797 796 795 798 799 796 793 788 780 776 779 785 787 785 784 781 775 779 790 791 786 784 785 786 786 784 786 791 793 791 787 782 780 781 782 782 782 780 780 780 779 779 779 778 778 777 776 775 773 772 771 770 769 768 767 765 763 762 761 760 759 758 757 756 756 756 755 755 756 757 758 759 760 761 763 766 768 769 771 776 780 781 784 787
796 794 793 794 795 799 801 800 796 791 788 787 787 790 790 789 793 791 782 782 787 790 789 787 784 785 786 784 789 793 791 790 788 782 779 779 781 781 781 780 780 779 779 778 778 777 776 775 774 773 772 771 770 769 768 766 764 763 760 759 758 757 756 755 754 753 753 753 752 753 753 754 755 756 757 759 760 763 766 768 770 773 777 778 780 784
795 798 797 795 797 799 799 800 798 793 790 793 794 790 787 790 795 791 785 786 788 787 790 789 785 785 785 785 788 791 790 790 789 783 780 780 780 781 781 780 780 779 778 777 776 775 774 773 772 771 771 770 768 767 765 763 762 760 758 757 756 755 753 752 751 751 750 750 751 751 751 751 752 753 755 756 757 760 763 766 770 773 775 777 779 783
795 800 801 797 798 801 801 802 800 793 790 793 793 788 787 791 792 789 787 789 789 786 788 788 786 785 786 788 791 789 787 787 786 781 780 780 780 781 781 779 778 777 776 775 773 772 771 770 769 768 768 767 765 764 763 761 759 757 754 754 753 751 749 748 748 748 748 748 749 749 749 749 750 751 753 754 755 757 761 765 770 773 775 777 780 782
803 805 806 803 802 803 804 804 801 794 791 792 791 788 786 785 786 788 790 791 789 786 786 787 786 785 785 788 789 787 784 782 781 780 779 779 779 779 777 777 776 774 773 771 770 769 768 767 766 765 764 763 762 761 760 758 755 753 751 751 749 747 745 745 746 746 746 747 747 746 747 748 749 750 751 753 754 756 760 765 769 772 775 777 779 781
810 811 811 808 806 807 807 805 803 797 792 791 790 786 785 787 791 791 790 789 787 785 784 785 784 784 783 784 785 783 781 780 780 780 780 779 777 776 774 773 772 770 769 768 766 766 764 763 762 762 761 760 759 758 756 755 752 750 748 747 744 742 742 743 744 744 745 745 745 745 746 747 749 750 751 752 754 756 760 764 768 771 774 775 777 780
810 812 814 810 808 811 812 809 806 799 792 789 789 788 788 793 795 790 786 786 785 784 783 783 782 781 781 781 780 780 780 779 779 779 778 776 775 773 771 770 768 766 765 763 762 762 761 759 758 757 757 756 756 754 753 751 749 746 746 743 740 739 741 741 741 741 742 742 743 744 745 746 749 752 753 753 754 755 759 763 768 771 773 774 776 779
808 810 814 812 809 811 810 804 798 794 790 788 789 790 791 791 789 787 786 786 783 781 781 780 779 779 779 779 779 779 779 778 776 774 773 771 770 768 767 766 765 762 760 759 758 757 757 756 754 753 753 752 751 750 749 747 745 743 741 738 736 738 738 737 738 738 738 739 740 741 743 746 748 752 756 756 754 755 759 763 768 771 772 774 776 779
807 806 810 811 807 805 803 797 791 789 790 789 788 789 789 787 785 786 786 784 782 781 780 779 779 778 778 778 778 777 776 774 772 770 769 768 767 765 764 762 761 759 757 755 753 753 753 752 750 748 747 746 746 745 743 742 741 739 735 733 733 734 734 733 734 735 734 736 737 739 742 745 746 751 755 756 755 757 761 765 768 770 772 773 776 778
806 806 808 808 805 802 798 795 793 792 790 788 788 789 788 787 785 785 784 783 782 780 780 779 779 777 777 777 777 775 774 771 769 768 767 766 764 763 762 759 756 755 754 751 750 749 749 748 746 744 742 739 739 739 738 737 736 733 730 729 729 729 730 730 731 731 731 733 735 737 741 744 747 751 755 756 757 760 763 766 768 770 772 773 775 777
806 807 808 806 806 805 800 794 793 793 790 788 789 788 786 785 785 784 783 783 781 780 780 779 778 777 777 776 776 774 772 770 769 768 765 764 762 760 758 756 753 751 750 748 746 746 745 744 742 740 737 734 732 733 732 731 730 728 725 725 725 726 726 727 728 728 729 731 733 736 739 743 747 751 753 756 759 761 764 767 769 770 771 772 774 777
808 808 808 806 805 805 801 795 793 792 790 788 788 787 785 784 783 782 781 781 780 780 779 778 776 776 775 774 774 772 770 769 768 765 763 761 759 757 755 753 750 748 746 744 743 742 742 740 738 735 732 729 727 727 727 725 723 722 721 720 721 722 723 724 725 726 727 728 731 734 737 741 745 749 752 757 761 764 766 767 769 770 771 772 774 777
807 808 807 806 805 805 802 797 794 794 791 787 786 786 785 784 782 781 781 780 779 778 777 776 775 774 773 772 771 770 768 766 764 762 760 757 755 753 751 749 747 745 743 741 740 739 737 735 733 730 728 725 723 723 721 719 717 716 715 715 716 718 720 721 722 724 725 727 730 734 739 744 747 749 753 759 763 765 767 767 768 769 770 772 774 776
808 808 805 807 809 808 803 796 795 796 794 788 784 783 783 783 782 781 780 779 778 776 776 774 773 771 771 770 769 768 766 763 760 758 756 754 751 749 747 745 744 741 739 737 735 733 732 730 727 725 723 721 719 718 716 714 713 711 710 710 711 712 715 717 719 721 723 726 729 735 740 745 748 751 756 760 763 765 766 766 767 768 769 772 774 776
805 804 802 805 807 804 799 795 794 795 793 788 784 782 781 781 781 779 777 777 775 774 774 773 771 769 767 766 765 765 763 759 756 755 752 750 748 745 743 742 740 737 734 733 730 728 725 724 722 721 719 717 715 714 712 711 710 709 707 706 706 708 711 714 717 720 723 726 730 735 740 744 748 753 757 760 762 763 764 765 766 768 770 772 774 775